[[{"header":{"parameterUnit":"m.s-1","parameterCategory":1,"la1":30.2991,"la2":30.254,"lo1":-89.0895,"lo2":-89.0444,"dy":0.0017,"dx":0.0017,"nx":28,"ny":28,"refTime":"2025-03-18T03:00:00:Z","depth":0,"parameterNumber":2,"parameterNumberName":"U-component_of_WINDS"},"data":[0,0,0,0,0,0,0,0,0,0,0,0,0,0,0,0,0,0,0,0,0,0,0,0,0,0,0,0,0,0,0,0,0,0,0,0,0,0,0,0,0,0,0,0,0,0,0,0,0,0,0,0,0,0,0,0,0,0,1.3384,1.3384,0,1.3461,1.3462,1.3463,1.3469,1.3468,1.3467,1.3466,1.3549,1.3552,1.3555,0,0,0,0,0,0,0,0,0,0,0,0,0,1.3244,1.3247,1.3383,1.3384,1.3385,1.3461,1.3462,1.3463,1.3469,1.3468,1.3467,1.3466,1.3548,1.3552,1.3555,0,0,0,0,0,0,0,0,0,0,0,0,0,1.3311,1.3247,1.3383,1.3397,1.3399,1.3461,1.3462,1.3463,1.3469,1.3468,1.3466,1.3465,1.3547,1.3551,1.3556,1.3609,0,0,1.3569,1.3571,0,0,0,0,0,0,0,0,1.3308,1.3317,1.3394,1.3396,1.3399,1.3454,1.3443,1.3513,1.3469,1.3443,1.3466,1.3465,1.3519,1.3525,1.3543,1.3613,1.3617,1.357,1.3573,1.3575,1.3576,0,0,0,0,0,0,0,1.3303,1.3313,1.3414,1.3395,1.3398,1.3401,1.3409,1.3456,1.3487,1.3445,1.3446,1.3454,1.352,1.3538,1.3545,1.3618,1.357,1.3574,1.3577,1.3578,1.3738,1.374,0,0,0,0,0,0,1.3295,1.3309,1.3412,1.3417,1.3349,1.3405,1.3414,1.3438,1.3487,1.3493,1.3455,1.3454,1.3531,1.354,1.3548,1.3615,1.3574,1.3579,1.3581,1.3737,1.3739,1.374,0,0,0,0,0,0,1.3292,1.3304,1.3409,1.3363,1.3377,1.3408,1.3435,1.344,1.3459,1.3494,1.35,1.3469,1.3531,1.3541,1.3594,1.3618,1.3581,1.3585,1.3735,1.3737,1.3739,1.3749,0,0,0,0,0,0,1.3288,1.3303,1.3323,1.3364,1.3379,1.3453,1.3437,1.3442,1.3466,1.3465,1.3509,1.3515,1.3531,1.3587,1.3599,1.3623,1.3588,1.3733,1.3736,1.3739,1.3747,1.3751,1.3755,0,0,0,0,0,1.3283,1.3323,1.3324,1.3336,1.3404,1.3454,1.3463,1.348,1.3468,1.3489,1.3512,1.3513,1.3613,1.3593,1.3605,1.3632,1.3732,1.3735,1.3738,1.3745,1.375,1.3755,0,0,0,0,0,0,1.3285,1.3328,1.333,1.3384,1.3415,1.3455,1.3482,1.3485,1.3521,1.3519,1.3539,1.3549,1.3601,1.3622,1.3598,1.3687,1.3671,1.3677,1.3672,1.3677,1.3682,1.3676,1.3592,0,0,0,0,0,1.3292,1.3327,1.3364,1.3408,1.3423,1.345,1.3472,1.3482,1.3516,1.3529,1.3556,1.359,1.3629,1.3654,1.3692,1.375,1.376,1.3774,1.3779,1.3782,1.3787,1.382,1.3828,1.3752,1.3752,1.3751,0,0,1.3306,1.3334,1.3355,1.3409,1.3434,1.3472,1.3461,1.3501,1.353,1.3536,1.3587,1.3608,1.3647,1.3703,1.3728,1.3721,1.381,1.3786,1.3789,1.3792,1.3825,1.3832,1.3838,1.3754,1.3754,1.3753,0,0,1.3351,1.3375,1.3415,1.3441,1.3479,1.3497,1.3506,1.3546,1.356,1.3611,1.3617,1.3652,1.3719,1.3746,1.3769,1.3826,1.3829,1.3838,1.386,1.3893,1.3899,1.3904,1.3925,1.3933,1.3843,1.3843,1.3843,0,1.3364,1.342,1.3436,1.3476,1.35,1.3506,1.3548,1.3572,1.3621,1.3639,1.363,1.3714,1.3741,1.3803,1.3817,1.3835,1.3848,1.3833,1.3896,1.3902,1.3907,1.3928,1.3936,1.3844,1.3844,1.3844,1.3844,0,1.3435,1.3474,1.3502,1.3548,1.3575,1.3616,1.3639,1.3665,1.3673,1.3692,1.3745,1.3777,1.3822,1.3838,1.3846,1.3902,1.3897,1.3892,1.3876,1.3915,1.3935,1.3943,1.3845,1.3845,1.3844,1.3844,0,0,1.3483,1.3538,1.3548,1.357,1.3613,1.3644,1.3686,1.3729,1.3751,1.3785,1.3821,1.3878,1.3874,1.39,1.3912,1.394,1.3984,1.3932,1.3933,1.3941,1.4049,1.4053,1.4062,1.3986,1.3987,1.3989,1.4046,0,1.3534,1.3607,1.3623,1.3686,1.3723,1.373,1.3767,1.3798,1.3817,1.3852,1.3873,1.3913,1.3904,1.392,1.3948,1.3972,1.4006,1.3968,1.4021,1.4023,1.4012,1.4072,1.4076,1.4129,1.4054,1.4055,1.4056,0,1.3603,1.3637,1.3704,1.3744,1.376,1.3792,1.3833,1.3866,1.3902,1.3914,1.3944,1.3953,1.3998,1.3979,1.4043,1.4017,1.4039,1.4055,1.4057,1.4063,1.4042,1.4081,1.4146,1.4154,1.4068,1.4067,1.4066,0,1.3632,1.3696,1.3745,1.3763,1.381,1.3832,1.3853,1.3888,1.3913,1.395,1.3967,1.4008,1.4031,1.4064,1.4085,1.4069,1.4147,1.413,1.4159,1.4159,1.4176,1.4174,1.4246,1.4189,1.4189,1.4188,1.4188,0,1.3688,1.3728,1.3759,1.3789,1.3835,1.3854,1.39,1.3921,1.3952,1.3987,1.3996,1.4029,1.4054,1.4091,1.4107,1.4158,1.4168,1.418,1.4184,1.418,1.4178,1.4195,1.4192,1.4191,1.419,1.419,1.4189,0,1.3729,1.375,1.3804,1.3844,1.3855,1.3888,1.3922,1.3953,1.3972,1.4016,1.4028,1.4059,1.4103,1.4126,1.4181,1.4193,1.425,1.4251,1.4237,1.4239,1.4267,1.4265,1.4353,1.4366,1.4299,1.43,1.43,0,1.3763,1.3794,1.3838,1.3861,1.3882,1.392,1.3946,1.3966,1.3993,1.4037,1.4062,1.4107,1.4143,1.4214,1.4242,1.4284,1.4288,1.4316,1.4294,1.4289,1.4289,1.4288,1.4292,1.432,1.432,1.4321,1.4321,0,1.3821,1.3831,1.3867,1.3907,1.3938,1.3971,1.4004,1.4023,1.4048,1.4078,1.4123,1.4151,1.4208,1.4252,1.4297,1.432,1.4326,1.4328,1.4337,1.4333,1.4324,1.4331,1.4248,1.4326,1.4325,1.4325,1.4325,1.4325,1.386,1.3889,1.3924,1.3965,1.3992,1.4022,1.4053,1.4076,1.4113,1.416,1.417,1.4218,1.4255,1.4315,1.434,1.4378,1.4373,1.4386,1.4389,1.4392,1.4394,1.4317,1.4386,1.4386,1.4386,1.4386,1.4386,0,1.392,1.3943,1.398,1.4026,1.4058,1.4059,1.4096,1.4123,1.4165,1.4198,1.4234,1.4286,1.433,1.4361,1.4406,1.4431,1.4435,1.4442,1.4441,1.4446,1.4396,1.4384,1.4438,1.4438,1.4438,1.4438,1.4438,1.4438,1.3955,1.4004,1.4018,1.4081,1.4104,1.4151,1.4172,1.4201,1.4227,1.4285,1.4321,1.4341,1.4374,1.4421,1.4462,1.447,1.4487,1.4494,1.4503,1.4455,1.445,1.4444,1.4433,1.4497,1.4497,1.455,1.455,1.4551]},{"header":{"parameterUnit":"m.s-1","parameterCategory":1,"la1":30.2991,"la2":30.254,"lo1":-89.0895,"lo2":-89.0444,"dy":0.0017,"dx":0.0017,"nx":28,"ny":28,"refTime":"2025-03-18T03:00:00:Z","depth":0,"parameterNumber":3,"parameterNumberName":"V-component_of_WINDS"},"data":[0,0,0,0,0,0,0,0,0,0,0,0,0,0,0,0,0,0,0,0,0,0,0,0,0,0,0,0,0,0,0,0,0,0,0,0,0,0,0,0,0,0,0,0,0,0,0,0,0,0,0,0,0,0,0,0,0,0,4.5289,4.529,0,4.538,4.5381,4.5382,4.5414,4.5414,4.5413,4.5413,4.5501,4.5503,4.5506,0,0,0,0,0,0,0,0,0,0,0,0,0,4.5139,4.5142,4.5289,4.529,4.5291,4.538,4.5381,4.5383,4.5414,4.5414,4.5413,4.5413,4.55,4.5503,4.5506,0,0,0,0,0,0,0,0,0,0,0,0,0,4.5214,4.5142,4.5289,4.5318,4.5322,4.538,4.5381,4.5383,4.5414,4.5414,4.5413,4.5413,4.5499,4.5503,4.5507,4.5541,0,0,4.5519,4.5521,0,0,0,0,0,0,0,0,4.521,4.522,4.5313,4.5316,4.532,4.5386,4.5361,4.5436,4.5414,4.5379,4.5413,4.5413,4.5463,4.5469,4.5487,4.5545,4.5549,4.5519,4.5522,4.5523,4.5524,0,0,0,0,0,0,0,4.5205,4.5216,4.5325,4.5314,4.5318,4.5325,4.5336,4.5375,4.5422,4.5382,4.5384,4.5395,4.5464,4.5484,4.549,4.555,4.5519,4.5523,4.5525,4.5527,4.5643,4.5644,0,0,0,0,0,0,4.5195,4.5211,4.5322,4.5328,4.5263,4.5328,4.534,4.5365,4.5422,4.543,4.5395,4.5396,4.5477,4.5485,4.5493,4.5539,4.5523,4.5527,4.5529,4.5643,4.5644,4.5644,0,0,0,0,0,0,4.5192,4.5205,4.5318,4.527,4.5285,4.5332,4.5359,4.5367,4.5386,4.5432,4.544,4.5407,4.5477,4.5487,4.553,4.5542,4.5529,4.5532,4.5642,4.5643,4.5644,4.563,0,0,0,0,0,0,4.5187,4.5203,4.5218,4.5271,4.5288,4.5355,4.536,4.5369,4.5394,4.5396,4.5445,4.5452,4.5477,4.5524,4.5534,4.5547,4.5536,4.5641,4.5642,4.5644,4.5629,4.563,4.5631,0,0,0,0,0,4.5182,4.5208,4.5218,4.5231,4.5307,4.5355,4.5365,4.5395,4.5394,4.5409,4.5439,4.5451,4.5539,4.5528,4.5539,4.5554,4.564,4.5642,4.5643,4.5629,4.563,4.5631,0,0,0,0,0,0,4.5153,4.5215,4.5227,4.5272,4.5308,4.5361,4.538,4.5395,4.5431,4.5431,4.5465,4.5476,4.5516,4.5539,4.5525,4.5592,4.559,4.5594,4.5575,4.5577,4.5577,4.5571,4.5539,0,0,0,0,0,4.5152,4.5188,4.524,4.5274,4.5292,4.5333,4.5355,4.5375,4.5414,4.5429,4.5462,4.5497,4.5533,4.5556,4.5592,4.5633,4.5644,4.5649,4.565,4.565,4.5653,4.5678,4.5681,4.565,4.565,4.565,0,0,4.5149,4.5188,4.5208,4.5269,4.53,4.5335,4.5345,4.5382,4.5408,4.5433,4.5477,4.5502,4.5544,4.5587,4.5607,4.5608,4.5665,4.5652,4.5652,4.5655,4.568,4.5683,4.5686,4.5651,4.5651,4.565,0,0,4.5164,4.5196,4.5229,4.5261,4.5309,4.5336,4.5344,4.5395,4.5414,4.5458,4.5479,4.551,4.5571,4.5601,4.5624,4.5653,4.5666,4.5663,4.5668,4.5692,4.5694,4.5697,4.5708,4.5712,4.5666,4.5666,4.5666,0,4.5154,4.521,4.5244,4.5281,4.5307,4.5335,4.5368,4.5397,4.5452,4.547,4.547,4.5549,4.5579,4.563,4.5638,4.5655,4.5665,4.5658,4.5692,4.5694,4.5697,4.5708,4.5713,4.5666,4.5666,4.5666,4.5666,0,4.5197,4.5235,4.5256,4.5313,4.5341,4.5376,4.5415,4.544,4.5458,4.5485,4.5531,4.5568,4.5613,4.5627,4.5643,4.5681,4.568,4.5685,4.5685,4.5699,4.571,4.5715,4.5665,4.5665,4.5665,4.5665,0,0,4.5193,4.5271,4.5278,4.5305,4.5361,4.5391,4.5427,4.5473,4.5495,4.5532,4.5564,4.5617,4.5623,4.5649,4.567,4.5691,4.5714,4.5695,4.5696,4.5698,4.5759,4.5755,4.5759,4.5723,4.5724,4.5725,4.5756,0,4.5215,4.5284,4.5317,4.537,4.5407,4.5435,4.5467,4.5504,4.5531,4.5565,4.5594,4.5632,4.5637,4.5653,4.5675,4.5706,4.5727,4.5704,4.5752,4.5754,4.5742,4.5765,4.576,4.5788,4.576,4.5761,4.5762,0,4.525,4.5291,4.535,4.5404,4.542,4.5449,4.5495,4.5528,4.5571,4.5589,4.562,4.5641,4.568,4.5677,4.5731,4.5716,4.5737,4.5756,4.5757,4.5763,4.5759,4.5772,4.5797,4.5802,4.5769,4.5768,4.5768,0,4.5243,4.5313,4.5358,4.538,4.5444,4.5463,4.5491,4.5534,4.556,4.56,4.5618,4.5661,4.5684,4.5717,4.5749,4.5743,4.5801,4.58,4.5817,4.5816,4.5828,4.5826,4.5857,4.584,4.584,4.584,4.584,0,4.5265,4.5299,4.5356,4.5383,4.5424,4.5461,4.5499,4.5528,4.5567,4.56,4.5625,4.5656,4.5696,4.5731,4.5756,4.5798,4.5808,4.5824,4.583,4.5822,4.582,4.5836,4.5835,4.5841,4.5841,4.5841,4.5841,0,4.5264,4.5303,4.5354,4.5412,4.5427,4.5454,4.5503,4.553,4.556,4.5601,4.5613,4.5659,4.5702,4.5737,4.5792,4.5809,4.5854,4.586,4.584,4.5843,4.5859,4.5857,4.5902,4.591,4.5887,4.5887,4.5887,0,4.5275,4.5303,4.5365,4.5391,4.5419,4.5458,4.5487,4.5525,4.5553,4.5606,4.5627,4.5673,4.5711,4.5779,4.5816,4.5859,4.5867,4.588,4.5874,4.5866,4.5869,4.5867,4.5871,4.588,4.5881,4.5881,4.5881,0,4.5292,4.5311,4.5352,4.54,4.5434,4.5474,4.5513,4.5532,4.5578,4.5608,4.5654,4.5684,4.5743,4.5788,4.5836,4.5862,4.5879,4.5883,4.5889,4.5881,4.5869,4.5877,4.5842,4.5881,4.5881,4.5881,4.5881,4.5881,4.5298,4.5325,4.5374,4.5419,4.5454,4.5492,4.5521,4.5556,4.5596,4.5648,4.5668,4.5715,4.5759,4.5826,4.5853,4.589,4.5892,4.5901,4.5903,4.5905,4.5905,4.5863,4.5899,4.5899,4.5899,4.5899,4.5899,0,4.5317,4.5351,4.5392,4.5449,4.5485,4.5501,4.5546,4.5575,4.5617,4.5658,4.5697,4.575,4.5795,4.5837,4.5883,4.5905,4.5914,4.5916,4.5915,4.5921,4.59,4.589,4.5908,4.5908,4.5908,4.5908,4.5908,4.5908,4.5331,4.5379,4.5404,4.5469,4.5502,4.5551,4.5576,4.5611,4.5644,4.5704,4.5742,4.577,4.5812,4.5862,4.5904,4.5915,4.5931,4.5931,4.5944,4.5924,4.5922,4.5921,4.5912,4.5934,4.5934,4.5963,4.5963,4.5963]}]]